Regional Weather Roundup
Issued by NWS Bismarck, ND

Home | Current Version | Previous Version | Text Only | Print | Product List | Glossary On
Versions: 1 2 3 4 5 6 7 8 9 10 11 12 13 14 15 16 17 18 19 20 21 22 23 24 25 26 27 28 29 30 31 32 33 34 35 36 37 38 39 40 41 42 43 44 45 46 47 48 49 50
000
ASUS43 KBIS 291820
RWRBIS

NWR BROADCAST TEXT
NATIONAL WEATHER SERVICE BISMARCK ND
1200 PM CST THU JAN 29 2015

NOTE: "FAIR" INDICATES FEW OR NO CLOUDS BELOW 12,000 FEET WITH NO
SIGNIFICANT WEATHER AND/OR OBSTRUCTIONS TO VISIBILITY.


CITY           SKY/WX    TMP DP  RH WIND       PRES   REMARKS
WILLISTON      CLOUDY    24  17  74 CALM      30.50S
MINOT          LGT SNOW  18  11  74 W21       30.50R WCI   1
MINOT AFB      FLURRIES  17  15  94 N7        30.50R WCI   7
BISMARCK       CLOUDY    29  20  69 N8        30.50R
DICKINSON      SUNNY     32  21  64 NW14      30.43S
GARRISON         N/A     24  19  81 N7        30.47S WCI  16
HETTINGER ARPT SUNNY     33  22  63 W10       30.46F
JAMESTOWN      LGT SNOW  19  12  74 NW16G23   30.48R WCI   4
BEACH          FAIR      28  25  86 W8        30.46F
CARRINGTON     FLURRIES  18  14  86 MISG      30.50S
CROSBY         CLOUDY    21  19  93 NW3       30.50S
HARVEY         CLOUDY    16  14  93 N12       30.49S WCI   3
HAZEN          CLOUDY    27  18  69 NW12      30.50F WCI  16
LINTON         CLOUDY    27  23  86 N13G18    30.49R WCI  16
MANDAN         CLOUDY    27  19  74 NW14G21   30.49R WCI  15
OAKES          FLURRIES  23  18  80 NW18G24   30.47R WCI   9
RUGBY          FLURRIES  14   9  79 N9        30.50S WCI   2
STANLEY        CLOUDY    21  19  93 NW7       30.46S WCI  13
TIOGA          CLOUDY    23  23 100 W3        30.49F
WATFORD CITY   MOCLDY    25  19  80 NW7       30.47S WCI  17
$$

CITY           SKY/WX    TMP DP  RH WIND       PRES   REMARKS
GRAND FORKS    LGT SNOW  14   7  73 N18       30.52R WCI  -3
GRAND FORKS AF FLURRIES  14   3  62 N16G25    30.52R WCI  -2
DEVILS LAKE    CLOUDY    14   7  73 N12       30.49R WCI   0
FARGO          CLOUDY    17   7  64 N22       30.50R WCI   0
CANDO          FLURRIES  14   7  73 N13       30.50S WCI   0
CAVALIER       FAIR       9   1  72 N22G29    30.54S WCI -11
GWINNER        CLOUDY    25  19  80 NW20      30.48R WCI  11
ROLLA          FLURRIES   9   7  92 NW14      30.48S WCI  -8
WALHALLA         N/A      9   1  72 N21G28    30.55S WCI -11
$$

CITY           SKY/WX    TMP DP  RH WIND       PRES   REMARKS
ABERDEEN       CLOUDY    27  18  69 N22       30.49R WCI  13
MOBRIDGE       CLOUDY    32  20  61 N16       30.46S
BUFFALO          N/A     36  21  54 W10       30.40S
RAPID CITY     SUNNY     40  16  37 CALM      30.47S
GLASGOW        FOG       27  25  92 SE10      30.42F VSB<1/4 WCI  17
SIDNEY         MOSUNNY   30  21  69 S6        30.50F
WOLF POINT     PTSUNNY   27  25  92 CALM      30.47S FOG
GLENDIVE       SUNNY     34  25  69 S6        30.47F
MILES CITY     SUNNY     32  28  85 S7        30.46S
BAKER          SUNNY     32  26  78 NW7       30.46F
$$

CITY           SKY/WX    TMP DP  RH WIND       PRES   REMARKS
BILLINGS       SUNNY     37  25  61 SW10      30.40S
GREAT FALLS    MOSUNNY   41  26  55 SW10      30.31S
REGINA         FLURRIES  14  10  85 S6        30.48F WCI   5
ESTEVAN        FLURRIES  16  10  79 N5        30.49S WCI   9
$$




USA.gov is the U.S. government's official web portal to all federal, state and local government web resources and services.